Flag for Slovenia Weather past 2 weeks in Ljubljana, Slovenia

Now
47 °F

Cool.


Feels Like: 47 °F
Forecast: 39 / 55 °F
Wind: 1 mph from East

Location: Ljubljana / Bezigrad

Current Time: Oct 25, 2014 at 5:03:32 AM

Latest Report: Oct 25, 2014 at 4:00 AM


Visibility: N/A

Pressure: 30.19 "Hg

Humidity: 82%

Dew point: 42 °F

Location of LjubljanaLocation

Historic Weather in Ljubljana — Graph

°F

Ljubljana temperature yesterday

Maximum temperature yesterday: 58 °F (at 1:00 PM)
Minimum temperature yesterday: 46 °F (at 12:00 AM)
Average temperature yesterday: 50 °F

Past Weeks' High & Low Weather Summary

 TemperatureHumidityPressure
High77 °F (Oct 11, 2:00 PM)99% (Oct 11, 9:00 AM)30.36 "Hg (Oct 11, 9:00 AM)
Low40 °F (Oct 23, 1:00 AM)43% (Oct 22, 7:00 PM)29.54 "Hg (Oct 22, 2:00 AM)
Average60 °F81%29.97 "Hg
* Reported Oct 10 3:00 AM — Oct 25 3:00 AM, Ljubljana, Weather by CustomWeather, © 2014

Note: Actual official high and low records may vary slightly from our data, if they occured in-between our weather recording intervals... More about our weather records

Advertising

Ljubljana weather history for previous 24 hours

 ConditionsComfort  
Time TempWeatherWind HumidityBarometerVisibility
3:00 AM
Oct 25
47 °FCool.1 mph82%30.19 "HgN/A
2:00 AM47 °FCool.1 mph83%30.19 "HgN/A
1:00 AM47 °FCool.1 mph84%30.18 "HgN/A
12:00 AM47 °FCool.1 mph87%30.17 "HgN/A
11:00 PM
Oct 24
47 °FCool.1 mph87%30.17 "HgN/A
10:00 PM47 °FOvercast.2 mph87%30.15 "Hg16 mi
9:00 PM48 °FOvercast.2 mph84%30.14 "Hg16 mi
8:00 PM48 °FOvercast.2 mph81%30.12 "Hg19 mi
7:00 PM49 °FOvercast.2 mph81%30.10 "Hg19 mi
6:00 PM49 °FOvercast.3 mph81%30.07 "Hg25 mi
5:00 PM51 °FOvercast.3 mph79%30.05 "Hg25 mi
4:00 PM52 °FPartly sunny.3 mph76%30.04 "Hg25 mi
3:00 PM55 °FPartly sunny.3 mph69%30.02 "Hg25 mi
2:00 PM56 °FScattered clouds.2 mph65%30.00 "Hg25 mi
1:00 PM58 °FScattered clouds.3 mph64%30.00 "Hg25 mi
12:00 PM58 °FScattered clouds.3 mph64%29.99 "Hg31 mi
11:00 AM56 °FScattered clouds.3 mph71%29.98 "Hg31 mi
10:00 AM50 °FScattered clouds.1 mph84%29.98 "Hg31 mi
9:00 AM49 °FScattered clouds.1 mph86%29.96 "Hg31 mi
8:00 AM49 °FScattered clouds.1 mph85%29.94 "Hg19 mi
7:00 AM50 °FPassing clouds.1 mph82%29.91 "Hg12 mi
6:00 AM50 °FOvercast.2 mph83%29.89 "Hg11 mi
5:00 AM49 °FOvercast.1 mph89%29.89 "Hg9 mi
Weather by CustomWeather, © 2014

See weather overviewHow to use our weather pages